User: anonymous   Login
Location: CNYAC Observatory
(43.2150°N, 74.9500°W)
Time: 02:27:57
(UTC-05:00)
Language:

Cosmos 1300 Rocket - Orbit

View from above orbital plane
View from above orbital plane
View from above satellite
View from above satellite

Ground track
Ground track

The orbit data is extracted from the following two-line orbital elements,

1 12786U 81082B   18017.85492510  .00000071  00000-0  56201-5 0  9991
2 12786  82.4903 125.3915 0016027 265.9052  94.0332 14.84714698966669
Epoch (UTC): 17 January 2018 20:31:05
Eccentricity: 0.0016027
inclination: 82.4903°
perigee height: 603 km
apogee height: 625 km
right ascension of ascending node: 125.3915°
argument of perigee: 265.9052°
revolutions per day: 14.84714698
mean anomaly at epoch: 94.0332°
orbit number at epoch: 96666

The dashed part of the orbit path shows where the satellite is in the earth's shadow,  

DLR